CPA812 VHHH-KBOS

Flight info

Callsign CPA812
Flight time N/A
Altitude 33000
Route DALOL V631 ENVAR M750 MUKEP Y891 OVSUN/N0499F340 Y893 IGMIS/N0502F330 Y57 POROT Y809 IDLAN Y812 ADNAP OTR5 KALNA DCT 43N160E 48N170E DCT EXAMY/N0488F350 DCT DRAPP DCT SPY DCT DLG DCT HOM J617 JOH DCT OMSUN DCT 62N130W/N0486F370 61N120W 59N110W 56N100W 52N090W/N0496F390 DCT ANTUR DCT OXASA Q904 OTONA DCT RAKAM DCT PONCT JFUND2
Aircraft A35K/H-SDE2E3GHIJ3J4J5LM1ORWXY/LB1D1

Departure

Time 2026-04-30 09:05
Airport Hong Kong International Airport (VHHH)

Arrival

Time N/A
Airport Boston Logan International Airport (KBOS)
Time Latitude Longitude Altitude Speed Heading
2026-04-30 08:45 22.31408 113.92713 38 ft 0 kts 206°
2026-04-30 08:51 22.31419 113.92719 37 ft 4 kts 206°
2026-04-30 08:52 22.31443 113.92732 35 ft 4 kts 205°
2026-04-30 08:52 22.31462 113.92742 35 ft 4 kts 217°
2026-04-30 08:52 22.31478 113.92763 36 ft 4 kts 252°
2026-04-30 08:52 22.31484 113.92787 33 ft 3 kts 251°
2026-04-30 08:53 22.31493 113.92814 36 ft 4 kts 251°
2026-04-30 08:53 22.31502 113.92840 34 ft 2 kts 251°
2026-04-30 08:53 22.31502 113.92841 34 ft 0 kts 251°
2026-04-30 08:55 22.31493 113.92813 38 ft 8 kts 255°
2026-04-30 08:56 22.31503 113.92734 38 ft 13 kts 294°
2026-04-30 08:56 22.31545 113.92638 38 ft 14 kts 297°
2026-04-30 08:56 22.31590 113.92540 38 ft 15 kts 297°
2026-04-30 08:56 22.31638 113.92438 38 ft 16 kts 295°
2026-04-30 08:57 22.31628 113.92326 38 ft 16 kts 252°
2026-04-30 08:57 22.31591 113.92210 38 ft 17 kts 251°
2026-04-30 08:57 22.31552 113.92086 38 ft 18 kts 251°
2026-04-30 08:57 22.31510 113.91956 38 ft 19 kts 250°
2026-04-30 08:58 22.31467 113.91819 38 ft 19 kts 251°
2026-04-30 08:58 22.31421 113.91679 38 ft 20 kts 251°
2026-04-30 08:58 22.31371 113.91524 38 ft 24 kts 251°
2026-04-30 08:58 22.31314 113.91351 38 ft 25 kts 250°
2026-04-30 08:59 22.31256 113.91174 38 ft 25 kts 251°
2026-04-30 08:59 22.31200 113.90998 38 ft 25 kts 251°
2026-04-30 08:59 22.31142 113.90820 38 ft 25 kts 251°
2026-04-30 08:59 22.31084 113.90640 38 ft 25 kts 251°
2026-04-30 09:00 22.31031 113.90474 37 ft 17 kts 250°
2026-04-30 09:00 22.30943 113.90432 38 ft 16 kts 162°
2026-04-30 09:00 22.30829 113.90474 38 ft 19 kts 161°
2026-04-30 09:00 22.30699 113.90523 38 ft 21 kts 161°
2026-04-30 09:01 22.30555 113.90577 38 ft 22 kts 161°
2026-04-30 09:01 22.30405 113.90633 38 ft 23 kts 161°
2026-04-30 09:01 22.30250 113.90688 38 ft 22 kts 161°
2026-04-30 09:01 22.30135 113.90727 38 ft 13 kts 177°
2026-04-30 09:02 22.30037 113.90526 38 ft 22 kts 250°
2026-04-30 09:02 22.29982 113.90354 38 ft 25 kts 251°
2026-04-30 09:02 22.29925 113.90177 38 ft 25 kts 251°
2026-04-30 09:03 22.29867 113.89995 38 ft 26 kts 251°
2026-04-30 09:03 22.29810 113.89875 38 ft 14 kts 202°
2026-04-30 09:03 22.29706 113.89898 36 ft 14 kts 162°
2026-04-30 09:03 22.29667 113.89920 36 ft 3 kts 111°
2026-04-30 09:04 22.29668 113.89934 36 ft 0 kts 84°
2026-04-30 09:04 22.29669 113.89937 36 ft 3 kts 84°
2026-04-30 09:04 22.29717 113.90111 36 ft 57 kts 70°
2026-04-30 09:04 22.29941 113.90798 37 ft 135 kts 70°
2026-04-30 09:05 22.30322 113.91999 95 ft 196 kts 68°
2026-04-30 09:05 22.30773 113.93392 999 ft 195 kts 69°
2026-04-30 09:05 22.31220 113.94793 1804 ft 201 kts 69°
2026-04-30 09:05 22.31696 113.96265 2171 ft 215 kts 69°
2026-04-30 09:06 22.32207 113.97837 2513 ft 228 kts 69°
2026-04-30 09:06 22.32734 113.99471 3073 ft 232 kts 69°
2026-04-30 09:06 22.33264 114.01123 3649 ft 234 kts 69°
2026-04-30 09:06 22.33725 114.02838 4111 ft 243 kts 77°
2026-04-30 09:07 22.33727 114.04679 4570 ft 254 kts 100°
2026-04-30 09:07 22.33044 114.06453 5090 ft 258 kts 126°
2026-04-30 09:07 22.31769 114.07809 5579 ft 260 kts 148°
2026-04-30 09:07 22.30127 114.08607 6095 ft 259 kts 168°
2026-04-30 09:08 22.28350 114.08825 6647 ft 257 kts 182°
2026-04-30 09:08 22.26520 114.08804 6938 ft 270 kts 185°
2026-04-30 09:08 22.24605 114.08746 7307 ft 279 kts 185°
2026-04-30 09:08 22.22656 114.08701 7843 ft 281 kts 184°
2026-04-30 09:09 22.20690 114.08667 8416 ft 283 kts 184°
2026-04-30 09:09 22.18734 114.08679 8946 ft 287 kts 180°
2026-04-30 09:09 22.16771 114.09214 9446 ft 298 kts 157°
2026-04-30 09:09 22.15150 114.10649 9923 ft 310 kts 130°
2026-04-30 09:10 22.14022 114.12668 10285 ft 321 kts 120°
2026-04-30 09:10 22.12999 114.14870 10511 ft 335 kts 118°
2026-04-30 09:10 22.11950 114.17167 10725 ft 348 kts 118°
2026-04-30 09:10 22.10846 114.19549 10938 ft 361 kts 119°
2026-04-30 09:11 22.09692 114.22011 11168 ft 374 kts 119°
2026-04-30 09:11 22.08480 114.24535 11357 ft 385 kts 122°
2026-04-30 09:11 22.06835 114.26830 11538 ft 391 kts 140°
2026-04-30 09:11 22.04692 114.28679 11749 ft 399 kts 147°
2026-04-30 09:12 22.02410 114.30458 11981 ft 408 kts 147°
2026-04-30 09:12 22.00090 114.32257 12338 ft 413 kts 147°
2026-04-30 09:12 21.97754 114.34079 12744 ft 416 kts 147°
2026-04-30 09:12 21.95398 114.35925 13146 ft 420 kts 147°
2026-04-30 09:13 21.93031 114.37791 13552 ft 423 kts 147°
2026-04-30 09:13 21.90646 114.39663 13933 ft 426 kts 147°
2026-04-30 09:13 21.88242 114.41553 14288 ft 429 kts 146°
2026-04-30 09:13 21.86006 114.43659 14636 ft 436 kts 134°
2026-04-30 09:14 21.84339 114.46395 14989 ft 443 kts 115°
2026-04-30 09:14 21.83333 114.49544 15373 ft 446 kts 107°
2026-04-30 09:14 21.82518 114.52768 15744 ft 449 kts 106°
2026-04-30 09:14 21.81985 114.54924 15984 ft 450 kts 106°
2026-04-30 09:15 21.81170 114.58185 16349 ft 453 kts 106°
2026-04-30 09:15 21.80338 114.61464 16715 ft 455 kts 106°
2026-04-30 09:15 21.79496 114.64756 17082 ft 457 kts 107°
2026-04-30 09:15 21.78644 114.68063 17429 ft 460 kts 107°
2026-04-30 09:16 21.77783 114.71394 17805 ft 462 kts 107°
2026-04-30 09:16 21.76916 114.74738 18156 ft 465 kts 107°
2026-04-30 09:16 21.76042 114.78104 18456 ft 468 kts 107°
2026-04-30 09:16 21.75163 114.81489 18777 ft 469 kts 107°
2026-04-30 09:17 21.74479 114.84936 19061 ft 473 kts 98°
2026-04-30 09:17 21.74209 114.88421 19356 ft 475 kts 93°
2026-04-30 09:17 21.74139 114.91989 19647 ft 477 kts 90°
2026-04-30 09:17 21.74171 114.95565 19953 ft 479 kts 89°
2026-04-30 09:18 21.74234 114.99161 20255 ft 481 kts 89°
2026-04-30 09:18 21.74293 115.02769 20548 ft 483 kts 89°
2026-04-30 09:18 21.74333 115.06385 20857 ft 485 kts 90°
2026-04-30 09:18 21.74355 115.10020 21134 ft 487 kts 90°
2026-04-30 09:19 21.74361 115.13674 21419 ft 489 kts 90°
2026-04-30 09:19 21.74359 115.17342 21705 ft 491 kts 90°
2026-04-30 09:19 21.74352 115.21031 21988 ft 493 kts 90°
2026-04-30 09:19 21.74347 115.24723 22262 ft 495 kts 90°
2026-04-30 09:20 21.74339 115.28437 22533 ft 497 kts 90°
2026-04-30 09:20 21.74329 115.32171 22803 ft 499 kts 90°
2026-04-30 09:20 21.74318 115.35870 23063 ft 501 kts 90°
2026-04-30 09:20 21.74306 115.39628 23319 ft 503 kts 90°
2026-04-30 09:21 21.74295 115.43398 23574 ft 505 kts 90°
2026-04-30 09:21 21.74283 115.47189 23780 ft 507 kts 90°
2026-04-30 09:21 21.74271 115.50987 23999 ft 509 kts 90°
2026-04-30 09:21 21.74257 115.54805 24212 ft 511 kts 90°
2026-04-30 09:22 21.74244 115.58633 24422 ft 512 kts 90°
2026-04-30 09:22 21.74227 115.62476 24651 ft 514 kts 91°
2026-04-30 09:22 21.74212 115.66328 24880 ft 515 kts 91°
2026-04-30 09:22 21.74197 115.70185 25112 ft 516 kts 91°
2026-04-30 09:23 21.74182 115.74052 25325 ft 518 kts 91°